TimeCST,TemperatureF,Dew PointF,Humidity,Sea Level PressureIn,VisibilityMPH,Wind Direction,Wind SpeedMPH,Gust SpeedMPH,PrecipitationIn,Events,Conditions,WindDirDegrees,DateUTC
12:15 AM,53.1,41.9,66,30.20,10.0,SE,5.8,-,N/A,,Clear,130,2013-03-08 06:15:00
12:35 AM,52.9,42.8,69,30.19,10.0,SE,5.8,-,N/A,,Clear,140,2013-03-08 06:35:00
12:55 AM,52.3,43.2,71,30.20,10.0,SSE,5.8,-,N/A,,Clear,150,2013-03-08 06:55:00
1:15 AM,52.2,42.3,69,30.20,10.0,SSE,6.9,-,N/A,,Clear,150,2013-03-08 07:15:00
1:35 AM,51.8,41.4,68,30.20,10.0,SE,4.6,-,N/A,,Clear,140,2013-03-08 07:35:00
1:55 AM,51.1,40.8,68,30.20,10.0,SE,4.6,-,N/A,,Clear,140,2013-03-08 07:55:00
2:15 AM,51.3,39.2,63,30.20,10.0,SSE,4.6,-,N/A,,Clear,150,2013-03-08 08:15:00
2:35 AM,50.9,38.7,63,30.19,10.0,SE,3.5,-,N/A,,Clear,130,2013-03-08 08:35:00
2:55 AM,50.7,38.8,64,30.19,10.0,SE,4.6,-,N/A,,Clear,140,2013-03-08 08:55:00
3:15 AM,50.9,39.9,66,30.19,10.0,SE,4.6,-,N/A,,Clear,140,2013-03-08 09:15:00
3:35 AM,50.9,41.0,69,30.18,10.0,SE,3.5,-,N/A,,Clear,130,2013-03-08 09:35:00
3:55 AM,50.9,41.9,71,30.18,10.0,ESE,4.6,-,N/A,,Clear,120,2013-03-08 09:55:00
4:15 AM,50.5,41.9,72,30.18,10.0,SE,3.5,-,N/A,,Clear,130,2013-03-08 10:15:00
4:35 AM,50.5,42.1,73,30.19,10.0,ESE,3.5,-,N/A,,Clear,110,2013-03-08 10:35:00
4:55 AM,50.9,43.0,74,30.20,10.0,Calm,Calm,-,N/A,,Mostly Cloudy,0,2013-03-08 10:55:00
5:15 AM,51.3,43.3,74,30.19,10.0,ESE,5.8,-,N/A,,Mostly Cloudy,110,2013-03-08 11:15:00
5:35 AM,51.8,43.7,74,30.20,10.0,ESE,5.8,-,N/A,,Overcast,120,2013-03-08 11:35:00
5:55 AM,52.0,44.2,75,30.19,10.0,ESE,5.8,-,N/A,,Overcast,110,2013-03-08 11:55:00
6:15 AM,52.3,45.1,76,30.19,10.0,ESE,5.8,-,N/A,,Overcast,110,2013-03-08 12:15:00
6:35 AM,52.9,46.0,78,30.20,10.0,ESE,5.8,-,N/A,,Overcast,110,2013-03-08 12:35:00
6:55 AM,52.5,45.1,76,30.20,10.0,ESE,4.6,-,N/A,,Overcast,110,2013-03-08 12:55:00
7:15 AM,51.4,43.9,75,30.21,10.0,East,4.6,-,N/A,,Mostly Cloudy,100,2013-03-08 13:15:00
7:35 AM,51.6,43.9,75,30.22,10.0,East,3.5,-,N/A,,Mostly Cloudy,90,2013-03-08 13:35:00
7:55 AM,52.0,44.2,75,30.23,10.0,East,3.5,-,N/A,,Overcast,90,2013-03-08 13:55:00
8:15 AM,52.9,45.5,76,30.23,10.0,East,4.6,-,N/A,,Overcast,90,2013-03-08 14:15:00
8:35 AM,54.9,47.3,76,30.23,10.0,ESE,5.8,-,N/A,,Overcast,110,2013-03-08 14:35:00
8:55 AM,56.3,49.3,77,30.23,10.0,ESE,6.9,-,N/A,,Mostly Cloudy,120,2013-03-08 14:55:00
9:15 AM,57.0,49.5,76,30.23,10.0,East,6.9,-,N/A,,Overcast,100,2013-03-08 15:15:00
9:35 AM,58.1,49.6,73,30.24,10.0,ESE,6.9,-,N/A,,Overcast,110,2013-03-08 15:35:00
9:55 AM,58.3,49.5,72,30.25,10.0,ESE,8.1,-,N/A,,Overcast,120,2013-03-08 15:55:00
10:15 AM,58.5,49.3,72,30.25,10.0,East,6.9,-,N/A,,Overcast,100,2013-03-08 16:15:00
10:35 AM,59.9,50.0,70,30.25,10.0,East,6.9,-,N/A,,Overcast,100,2013-03-08 16:35:00
10:55 AM,61.0,50.2,68,30.25,10.0,East,6.9,-,N/A,,Mostly Cloudy,90,2013-03-08 16:55:00
11:15 AM,63.1,51.1,65,30.24,10.0,ESE,6.9,-,N/A,,Scattered Clouds,110,2013-03-08 17:15:00
11:35 AM,63.5,51.3,64,30.22,10.0,ESE,8.1,-,N/A,,Scattered Clouds,110,2013-03-08 17:35:00
11:55 AM,64.4,52.0,64,30.21,10.0,ESE,11.5,16.1,N/A,,Clear,120,2013-03-08 17:55:00
12:15 PM,64.9,52.2,63,30.20,10.0,ESE,10.4,-,N/A,,Clear,120,2013-03-08 18:15:00
12:35 PM,66.0,52.2,61,30.20,10.0,ESE,10.4,16.1,N/A,,Mostly Cloudy,120,2013-03-08 18:35:00
12:55 PM,66.2,52.2,61,30.18,10.0,ESE,9.2,-,N/A,,Overcast,110,2013-03-08 18:55:00
1:15 PM,66.7,52.3,60,30.17,10.0,East,10.4,-,N/A,,Overcast,100,2013-03-08 19:15:00
1:35 PM,66.4,52.5,61,30.16,10.0,East,10.4,16.1,N/A,,Overcast,100,2013-03-08 19:35:00
1:55 PM,66.7,52.5,60,30.15,10.0,ESE,9.2,-,N/A,,Overcast,120,2013-03-08 19:55:00
2:15 PM,66.7,52.9,61,30.13,10.0,East,9.2,-,N/A,,Overcast,90,2013-03-08 20:15:00
2:35 PM,66.7,53.1,61,30.13,10.0,ESE,9.2,-,N/A,,Overcast,120,2013-03-08 20:35:00
2:55 PM,67.1,53.1,61,30.13,10.0,SE,6.9,-,N/A,,Overcast,130,2013-03-08 20:55:00
3:15 PM,67.5,53.4,61,30.12,10.0,ESE,9.2,-,N/A,,Overcast,120,2013-03-08 21:15:00
3:35 PM,67.5,53.6,61,30.12,10.0,SSE,4.6,-,N/A,,Overcast,150,2013-03-08 21:35:00
3:55 PM,66.9,53.6,62,30.12,10.0,ESE,6.9,-,N/A,,Overcast,110,2013-03-08 21:55:00
4:15 PM,66.6,53.8,63,30.11,10.0,East,8.1,-,N/A,,Overcast,100,2013-03-08 22:15:00
4:35 PM,66.7,53.8,63,30.11,10.0,ESE,6.9,-,N/A,,Overcast,110,2013-03-08 22:35:00
4:55 PM,66.7,54.0,63,30.10,10.0,ESE,6.9,-,N/A,,Mostly Cloudy,110,2013-03-08 22:55:00
5:15 PM,66.7,54.3,64,30.09,10.0,ESE,4.6,-,N/A,,Scattered Clouds,120,2013-03-08 23:15:00
5:35 PM,66.4,54.5,66,30.10,10.0,Calm,Calm,-,N/A,,Scattered Clouds,0,2013-03-08 23:35:00
5:55 PM,66.2,54.7,66,30.11,10.0,Calm,Calm,-,N/A,,Scattered Clouds,0,2013-03-08 23:55:00
6:15 PM,65.8,55.0,68,30.11,10.0,SE,4.6,-,N/A,,Scattered Clouds,140,2013-03-09 00:15:00
6:35 PM,65.5,55.0,69,30.10,10.0,SE,5.8,-,N/A,,Scattered Clouds,130,2013-03-09 00:35:00
6:55 PM,65.5,55.0,69,30.09,10.0,SE,8.1,-,N/A,,Scattered Clouds,130,2013-03-09 00:55:00
7:15 PM,65.3,54.7,68,30.09,10.0,SE,6.9,-,N/A,,Scattered Clouds,130,2013-03-09 01:15:00
7:35 PM,65.3,54.5,68,30.09,10.0,SE,6.9,-,N/A,,Clear,130,2013-03-09 01:35:00
7:55 PM,65.3,54.5,68,30.09,10.0,SSE,5.8,-,N/A,,Clear,150,2013-03-09 01:55:00
8:15 PM,64.8,54.5,69,30.09,10.0,SE,6.9,-,N/A,,Clear,140,2013-03-09 02:15:00
8:35 PM,64.6,54.5,70,30.10,10.0,SSE,3.5,-,N/A,,Clear,150,2013-03-09 02:35:00
8:55 PM,64.2,54.5,71,30.10,10.0,SSE,8.1,-,N/A,,Clear,160,2013-03-09 02:55:00
9:15 PM,63.7,53.8,70,30.11,10.0,SSE,8.1,-,N/A,,Clear,160,2013-03-09 03:15:00
9:35 PM,63.5,53.6,70,30.11,10.0,SSE,5.8,-,N/A,,Clear,150,2013-03-09 03:35:00
9:55 PM,62.8,53.2,71,30.11,10.0,SSE,8.1,-,N/A,,Clear,160,2013-03-09 03:55:00
10:15 PM,62.1,53.2,73,30.11,10.0,SSE,4.6,-,N/A,,Clear,150,2013-03-09 04:15:00
10:35 PM,61.5,53.1,74,30.11,10.0,SE,4.6,-,N/A,,Clear,140,2013-03-09 04:35:00
10:55 PM,60.8,52.9,75,30.10,10.0,SE,4.6,-,N/A,,Clear,140,2013-03-09 04:55:00
11:15 PM,60.1,52.9,77,30.10,10.0,SE,4.6,-,N/A,,Clear,140,2013-03-09 05:15:00
11:35 PM,59.4,52.7,79,30.09,10.0,SE,3.5,-,N/A,,Clear,130,2013-03-09 05:35:00
11:55 PM,59.0,52.7,80,30.09,10.0,SE,5.8,-,N/A,,Scattered Clouds,140,2013-03-09 05:55:00